This demonstration page uses our WeatherBlox Daily Observations layout. Learn more.

Left ArrowRight Arrow

Hourly Observations for May 14, 2017

Temp ( °F °C ) Dew Point ( °F °C ) Humidity (%) Winds ( mph kmh ) Pressure ( in mb ) Visibility ( mi km ) Precip ( " mm )
12:15 am 00:15 Partly Cloudy 46 8 46 8 100 100 N N/A 29.88 1012 10 16 N/A
12:35 am 00:35 Mostly Cloudy 46 8 46 8 100 100 N N/A 29.88 1012 10 16 N/A
12:55 am 00:55 Partly Cloudy 46 8 46 8 100 100 N N/A 29.83 1010 10 16 N/A
1:15 am 01:15 Clear 45 7 45 7 100 100 N N/A 29.85 1011 10 16 N/A
1:35 am 01:35 Clear 45 7 45 7 100 100 N N/A 29.85 1011 10 16 N/A
1:55 am 01:55 Clear 45 7 45 7 100 100 N N/A 29.85 1011 10 16 N/A
2:15 am 02:15 Clear 46 8 46 8 100 100 N N/A 29.83 1010 10 16 N/A
2:35 am 02:35 Clear 46 8 46 8 100 100 N N/A 29.83 1010 10 16 N/A
2:55 am 02:55 Clear 45 7 45 7 100 100 N N/A 29.85 1011 10 16 N/A
3:15 am 03:15 Clear 45 7 45 7 100 100 N N/A 29.85 1011 10 16 N/A
3:35 am 03:35 Clear 45 7 45 7 100 100 N N/A 29.85 1011 10 16 N/A
3:55 am 03:55 Clear 45 7 45 7 100 100 N N/A 29.83 1010 10 16 N/A
4:15 am 04:15 Clear 45 7 45 7 100 100 N N/A 29.83 1010 10 16 N/A
4:35 am 04:35 Clear 45 7 45 7 100 100 N N/A 29.83 1010 10 16 N/A
4:55 am 04:55 Clear 43 6 43 6 100 100 WSW 3 6 29.83 1010 10 16 N/A
5:15 am 05:15 Clear 43 6 43 6 100 100 W 3 6 29.83 1010 10 16 N/A
5:35 am 05:35 Mostly Cloudy 45 7 45 7 100 100 WSW 3 6 29.83 1010 10 16 N/A
5:55 am 05:55 Cloudy 45 7 45 7 100 100 N N/A 29.85 1011 10 16 N/A
6:15 am 06:15 Mostly Cloudy 46 8 46 8 100 100 N N/A 29.80 1009 10 16 N/A
6:35 am 06:35 Partly Cloudy 46 8 46 8 100 100 N N/A 29.80 1009 10 16 N/A
6:55 am 06:55 Sunny 46 8 46 8 100 100 W 3 6 29.80 1009 10 16 N/A
7:15 am 07:15 Sunny 48 9 48 9 100 100 N N/A 29.80 1009 10 16 N/A
7:35 am 07:35 Sunny 50 10 50 10 100 100 N N/A 29.80 1009 10 16 N/A
7:55 am 07:55 Sunny 52 11 52 11 100 100 N N/A 29.80 1009 10 16 N/A
8:15 am 08:15 Sunny 54 12 54 12 100 100 N N/A 29.80 1009 10 16 N/A
8:35 am 08:35 Sunny 59 15 55 13 88 88 N N/A 29.80 1009 10 16 N/A
8:55 am 08:55 Partly Cloudy 61 16 54 12 77 77 N N/A 29.80 1009 10 16 N/A
9:15 am 09:15 Partly Cloudy 63 17 54 12 73 73 SW 5 7 29.80 1009 10 16 N/A
9:35 am 09:35 Partly Cloudy 64 18 54 12 68 68 WSW 7 11 29.80 1009 10 16 N/A
9:55 am 09:55 Sunny 66 19 55 13 68 68 W 3 6 29.77 1008 10 16 N/A
10:15 am 10:15 Sunny 68 20 54 12 60 60 W 5 7 29.77 1008 10 16 N/A
10:35 am 10:35 Sunny 70 21 55 13 60 60 WNW 8 13 29.77 1008 10 16 N/A
10:55 am 10:55 Sunny 72 22 55 13 57 57 WNW 9 15 29.77 1008 10 16 N/A
11:15 am 11:15 Sunny 72 22 54 12 53 53 WNW 18 30 29.77 1008 10 16 N/A
11:35 am 11:35 Sunny 72 22 55 13 57 57 WNW 21 33 29.77 1008 10 16 N/A
11:55 am 11:55 Sunny 73 23 55 13 53 53 NW 15 24 29.77 1008 10 16 N/A
12:15 pm 12:15 Sunny 73 23 54 12 50 50 NNW 14 22 29.74 1007 10 16 N/A
12:35 pm 12:35 Sunny 75 24 54 12 47 47 NW 20 31 29.74 1007 10 16 N/A
12:55 pm 12:55 Sunny 75 24 54 12 47 47 NW 14 22 29.74 1007 10 16 N/A
1:15 pm 13:15 Sunny 77 25 52 11 42 42 WNW 14 22 29.74 1007 10 16 N/A
1:35 pm 13:35 Partly Cloudy 75 24 52 11 44 44 WNW 12 19 29.74 1007 10 16 N/A
1:55 pm 13:55 Mostly Cloudy 77 25 50 10 39 39 WNW 23 37 29.71 1006 10 16 N/A
2:15 pm 14:15 Mostly Cloudy 77 25 46 8 34 34 WNW 22 35 29.71 1006 10 16 N/A
2:35 pm 14:35 Mostly Cloudy 79 26 46 8 32 32 NW 18 30 29.74 1007 10 16 N/A
2:55 pm 14:55 Mostly Cloudy 79 26 45 7 30 30 NW 24 39 29.74 1007 10 16 N/A
3:15 pm 15:15 Mostly Cloudy 77 25 43 6 30 30 NW 24 39 29.71 1006 10 16 N/A
3:35 pm 15:35 Mostly Cloudy 77 25 43 6 30 30 WNW 25 41 29.71 1006 10 16 N/A
3:55 pm 15:55 Mostly Cloudy 79 26 45 7 30 30 NW 23 37 29.71 1006 10 16 N/A
4:15 pm 16:15 Partly Cloudy 79 26 45 7 30 30 NW 21 33 29.71 1006 10 16 N/A
4:35 pm 16:35 Sunny 79 26 46 8 32 32 NNW 17 28 29.71 1006 10 16 N/A
4:55 pm 16:55 Sunny 79 26 46 8 32 32 NW 16 26 29.71 1006 10 16 N/A
5:15 pm 17:15 Partly Cloudy 79 26 46 8 32 32 WNW 15 24 29.71 1006 10 16 N/A
5:35 pm 17:35 Partly Cloudy 77 25 46 8 34 34 NW 14 22 29.71 1006 10 16 N/A
5:55 pm 17:55 Mostly Cloudy 77 25 48 9 36 36 WNW 12 19 29.71 1006 10 16 N/A
6:15 pm 18:15 Mostly Cloudy 77 25 48 9 36 36 WNW 17 28 29.71 1006 10 16 N/A
6:35 pm 18:35 Partly Cloudy 75 24 48 9 39 39 WNW 13 20 29.68 1005 10 16 N/A
6:55 pm 18:55 Partly Cloudy 77 25 48 9 36 36 NW 18 30 29.68 1005 10 16 N/A
7:15 pm 19:15 Sunny N/A N/A N/A NW 15 24 N/A 10 16 N/A
7:35 pm 19:35 Sunny 73 23 48 9 41 41 NW 12 19 29.71 1006 10 16 N/A
7:55 pm 19:55 Partly Cloudy 72 22 50 10 47 47 NW 10 17 29.71 1006 10 16 N/A
8:15 pm 20:15 Cloudy 72 22 50 10 47 47 NNW 8 13 29.71 1006 10 16 N/A
8:35 pm 20:35 Cloudy 72 22 50 10 47 47 NNW 7 11 29.71 1006 10 16 N/A
8:55 pm 20:55 Mostly Cloudy 72 22 48 9 44 44 NNW 10 17 29.74 1007 10 16 N/A
9:15 pm 21:15 Mostly Cloudy 72 22 48 9 44 44 NNW 14 22 29.74 1007 10 16 N/A
9:35 pm 21:35 Cloudy 72 22 46 8 41 41 N 18 30 29.74 1007 10 16 N/A
9:55 pm 21:55 Cloudy 70 21 45 7 40 40 N 15 24 29.77 1008 10 16 N/A
10:15 pm 22:15 Cloudy N/A N/A N/A N 16 26 N/A 10 16 N/A
10:35 pm 22:35 Cloudy N/A N/A N/A N 18 30 N/A 10 16 N/A
10:55 pm 22:55 Cloudy 66 19 39 4 37 37 N 25 41 29.83 1010 10 16 N/A
11:15 pm 23:15 Cloudy N/A N/A N/A N 22 35 N/A 10 16 N/A
11:35 pm 23:35 Cloudy N/A N/A N/A N 23 37 N/A 10 16 N/A
11:55 pm 23:55 Mostly Cloudy N/A N/A N/A N 23 37 N/A 10 16 N/A

Powered by AerisWeather